Regional Weather Roundup
Issued by NWS Charleston, SC

Current Version | Previous Version | Graphics & Text | Print | Product List | Glossary On
Versions: 1 2 3 4 5 6 7 8 9 10 11 12 13 14 15 16 17 18 19 20 21 22 23 24 25 26 27 28 29 30 31 32 33 34 35 36 37 38 39 40 41 42 43 44 45 46 47 48 49 50
000
ASUS42 KCHS 270613
RWRCHS

REGIONAL WEATHER ROUNDUP
NATIONAL WEATHER SERVICE CHARLESTON SC
200 AM EDT FRI MAY 27 2016

NOTE: "FAIR" INDICATES FEW OR NO CLOUDS BELOW 12,000 FEET WITH NO
SIGNIFICANT WEATHER AND/OR OBSTRUCTIONS TO VISIBILITY.

NOT ALL STATIONS ARE QUALITY CONTROLLED. USE DATA WITH CAUTION...
ESPECIALLY DEWPOINT OBSERVATIONS.

SCZ027-030-031-034>040-042>050-270700-
...SOUTHEAST SOUTH CAROLINA...

CITY           SKY/WX    TMP DP  RH WIND       PRES   REMARKS
N CHARLESTON   PTCLDY    67  62  84 N3        30.13S
6HR MIN TEMP:  67; 6HR MAX TEMP:  77;

WATERFRONT PRK   N/A     76  66  71 S6        30.10F
MOUNT PLEASANT FAIR      66  63  88 CALM      30.13S
JOHNS ISLAND   FAIR      68  64  88 CALM      30.12F
PINOPOLIS        N/A     72  64  78 CALM      30.06F
MONCKS CORNER  NOT AVBL
SUMMERVILLE    FAIR      64  64 100 CALM      30.14S
BEAUFORT MCAS  CLEAR     74  65  73 CALM      30.11F
6HR MIN TEMP:  69; 6HR MAX TEMP:  77;

BEAUFORT ARPT  FAIR      72  61  68 CALM      30.11F
HILTON HEAD IS CLEAR     73  61  64 VRB5      30.11F
WALTERBORO     CLEAR     68  66  94 CALM      30.13F
ALLENDALE      FAIR      66  61  82 CALM      30.12R

...SOUTHERN MIDLANDS AND PEE DEE...

CITY           SKY/WX    TMP DP  RH WIND       PRES   REMARKS
GEORGETOWN     FAIR      61  59  94 CALM      30.14F
KINGSTREE      FAIR      66  59  77 SE3       30.14S
ORANGEBURG     CLEAR     68  61  78 SE3       30.13F
6HR MIN TEMP:  67; 6HR MAX TEMP:  81;

BARNWELL       FAIR      72  64  78 CALM      30.13S
AIKEN          FAIR      68  57  68 S5        30.16S
MANNING        FAIR      68  63  83 CALM      30.13S
COLUMBIA       CLEAR     72  60  66 S6        30.12F
6HR MIN TEMP:  72; 6HR MAX TEMP:  85;

SUMTER         CLEAR     69  61  76 S1        30.11S
6HR MIN TEMP:  68; 6HR MAX TEMP:  82;

FLORENCE       CLEAR     69  62  78 S5        30.14S
6HR MIN TEMP:  69; 6HR MAX TEMP:  82;

MYRTLE BEACH   CLEAR     75  57  53 S9        30.15F
N MYRTLE BEACH PTCLDY    74  64  71 S7        30.13S
6HR MIN TEMP:  74; 6HR MAX TEMP:  76;


$$

GAZ063-065-086>088-099>101-113>116-118-119-134>141-150-270700-
...SOUTHEAST GEORGIA...

CITY           SKY/WX    TMP DP  RH WIND       PRES   REMARKS
SAVANNAH ARPT  CLEAR     71  61  70 SE3       30.11F
6HR MIN TEMP:  68; 6HR MAX TEMP:  78;

HUNTER AAF     CLEAR     71  63  76 SE5       30.07F
6HR MIN TEMP:  69; 6HR MAX TEMP:  76;

FORT STEWART   CLEAR     63  60  90 CALM      30.08F
6HR MIN TEMP:  63; 6HR MAX TEMP:  77;

STATESBORO     CLEAR     66  64  91 CALM      30.11F
SYLVANIA       CLEAR     68  64  86 CALM      30.12F
CLAXTON        FAIR      64  62  93 CALM      30.11S

...CSRA...CENTRAL AND FAR SOUTHEAST GEORGIA...

CITY           SKY/WX    TMP DP  RH WIND       PRES   REMARKS
THOMSON        PTCLDY    74  63  66 S3        30.15F
AUGUSTA-BUSH   CLEAR     68  59  73 CALM      30.12R
6HR MIN TEMP:  67; 6HR MAX TEMP:  79;

AUGUSTA-DANIEL CLEAR     73  56  54 S6        30.13S
SWAINSBORO     FAIR      70  59  68 CALM      30.13S
VIDALIA        CLEAR     68  61  77 CALM      30.12S
EASTMAN        CLOUDY    72  60  66 S3        30.13F
HAZLEHURST     FAIR      70  63  78 CALM      30.10S
ALMA           CLEAR     67  62  84 CALM      30.10S
6HR MIN TEMP:  66; 6HR MAX TEMP:  80;

WAYCROSS       CLEAR     64  62  92 CALM      30.10S
JESUP          FAIR      59  57  94 CALM      30.11S
BAXLEY         FAIR      66  63  88 CALM      30.10S
BRUNSWICK      CLEAR     68  64  88 CALM      30.09F
SAINT SIMONS   CLEAR     75  59  57 SE10      30.08F
6HR MIN TEMP:  74; 6HR MAX TEMP:  76;


$$

SCZ027-028-034-036>038-045-046-048>050-GAZ119-141-270700-
...LAKE AND SUPPLEMENTAL COASTAL OBSERVATIONS...

STATION/POSITION TIME  TEMP    WIND        PRES    WAVE   SWELL
                       AIR SEA DIR/SP/G            HT/PER HT/PER/DIR
                 (UTC) (F)     (DEG/KT/KT) (MB)    (FT/S) (FT/S/D)
WINYAH BAY       NOT AVBL
LAKE MURRAY      0500   75     190/  8/ 11 1019.6R
ACE BASIN NERRS  NOT AVBL
FORT PULASKI     0500   75 77  120/  5/  7 1020.5F
SAPELO ISLAND    0500   71     120/  3     1020.0F

$$

ANZ835-935-AMZ111-154-330-350-352-354-370-450-454-472-270700-
...C-MAN AND BUOY OBSERVATIONS...

STATION/POSITION TIME  TEMP    WIND        PRES    WAVE   SWELL
                       AIR SEA DIR/SP/G            HT/PER HT/PER/DIR
                 (UTC) (F)     (DEG/KT/KT) (MB)    (FT/S) (FT/S/D)
BUOY 41004       0550   77 77  130/ 12/ 14 1019.4F   2/ 8   2/ 8
BUOY 41008       0550   76 76  120/ 12/ 14 1018.9F   2/ 5   2/110/ 8
FOLLY BEACH CMAN 0500   77     140/ 12/ 13 1020.3F
CAPERS NEARSHORE 0508   77 77  160/ 12/ 16 1020.1F
FRIPP NEARSHORE  0508   76 76  160/ 10/ 14 1019.4F


STATION/POSITION TIME  TEMP    WIND        PRES    WAVE   SWELL
                       AIR SEA DIR/SP/G            HT/PER HT/PER/DIR
                 (UTC) (F)     (DEG/KT/KT) (MB)    (FT/S) (FT/S/D)
5E ST. MARYS GA  0501      78                N/A     3/ 4
FRYING PAN BUOY  0500   77 76  140/ 10/ 12 1020.6F
BUOY 41025       0550   76 71  180/ 14/ 16 1020.7F   2/ 8   2/130/ 8
CAPE LOOKOUT NC  0600   74     170/  9/  9 1020.5F
BUOY 41002       0550   76 77   70/ 12/ 16 1019.7F   3/ 7   2/100/ 7
BUOY 41010       0520   76 78   80/ 10/ 12 1018.0F
ST AUGUSTINE FL  0600   77 79  100/ 16/ 18 1018.7F


$$



USA.gov is the U.S. government's official web portal to all federal, state and local government web resources and services.